CW0467 Weather Reports


time (UTC)temp
C
wind
direction
speed
KPH
gust
KPH
rain 1hr
cm
rain 24hr
cm
rain mn
cm
humidity
%
barometer
mb
20260902052713 16 83 0.0 0.0 0.00 0.00 0.00 88 1018.0
20260902050712 16 83 0.0 0.0 0.00 0.00 0.00 88 1017.8
20260902044712 16 83 0.0 0.0 0.00 0.00 0.00 88 1017.5
20260902040712 16 83 0.0 0.0 0.00 0.00 0.00 88 1017.2
20260902035712 16 83 0.0 0.0 0.00 0.00 0.00 88 1017.0
20260902031712 16 83 0.0 0.0 0.00 0.00 0.00 88 1017.3
20260902030713 16 83 0.0 0.0 0.00 0.00 0.00 88 1017.1
20260902013713 16 83 0.0 0.0 0.00 0.00 0.00 88 1016.8
20260902012712 16 83 0.0 0.0 0.00 0.00 0.00 88 1017.0
20260902011712 16 83 0.0 0.0 0.00 0.00 0.00 88 1016.9
20260902010712 17 83 0.0 0.0 0.00 0.00 0.00 88 1016.8
20260902001712 17 83 0.0 0.0 0.00 0.00 0.00 88 1016.9
20260902000712 17 83 0.0 0.0 0.00 0.00 0.00 88 1016.8
20260901235713 17 83 0.0 1.6 0.00 0.00 0.00 88 1016.5
20260901234742 17 65 1.6 4.8 0.00 0.00 0.00 88 1016.4
20260901232712 18 212 0.0 0.0 0.00 0.00 0.00 88 1016.5
20260901231712 18 212 0.0 0.0 0.00 0.00 0.00 88 1016.3
20260901230712 18 212 0.0 0.0 0.00 0.00 0.00 88 1016.3
20260901225712 18 212 0.0 0.0 0.00 0.00 0.00 87 1016.3
20260901224712 18 212 0.0 0.0 0.00 0.00 0.00 87 1016.3
20260901223712 18 212 0.0 0.0 0.00 0.00 0.00 87 1016.3
20260901222712 18 212 0.0 0.0 0.00 0.00 0.00 87 1016.4
20260901221713 18 212 0.0 0.0 0.00 0.00 0.00 87 1016.5
20260901220712 18 212 0.0 0.0 0.00 0.00 0.00 87 1016.5
20260901214712 18 212 0.0 0.0 0.00 0.00 0.00 86 1016.5
20260901211713 18 212 0.0 0.0 0.00 0.00 0.00 86 1016.3
20260901205713 18 212 0.0 0.0 0.00 0.00 0.00 86 1016.1
20260901204712 18 212 0.0 0.0 0.00 0.00 0.00 86 1015.9
20260901201712 18 212 1.6 3.2 0.00 0.00 0.00 86 1015.6
20260901200712 18 210 0.0 0.0 0.00 0.00 0.00 85 1015.6
20260901195712 18 210 0.0 0.0 0.00 0.00 0.00 85 1015.6
20260901193722 18 216 0.0 0.0 0.00 0.00 0.00 85 1015.6
20260901192714 18 216 0.0 0.0 0.00 0.00 0.00 85 1015.7
20260901185712 19 210 0.0 0.0 0.00 0.00 0.00 84 1015.6
20260901184712 19 210 0.0 0.0 0.00 0.00 0.00 84 1015.6
20260901183712 19 184 0.0 1.6 0.00 0.00 0.00 84 1015.5
20260901175711 20 188 1.6 3.2 0.00 0.00 0.00 83 1015.1
20260901173712 21 98 1.6 9.7 0.00 0.00 0.00 84 1015.1
20260901172712 20 165 3.2 8.0 0.00 0.00 0.00 85 1015.4
20260901171713 20 179 1.6 4.8 0.00 0.00 0.00 85 1015.4
20260901170712 20 28 1.6 8.0 0.00 0.00 0.00 85 1015.5
20260901162712 21 129 3.2 9.7 0.00 0.00 0.00 87 1015.1
20260901161713 21 109 1.6 9.7 0.00 0.00 0.00 87 1015.2
20260901150712 20 77 1.6 8.0 0.00 0.00 0.00 88 1015.6
20260901144712 20 88 0.0 0.0 0.00 0.00 0.00 88 1015.7
20260901143714 20 88 0.0 3.2 0.00 0.00 0.00 88 1015.7
20260901141712 20 14 0.0 0.0 0.00 0.00 0.00 88 1015.8
20260901140712 20 14 0.0 0.0 0.00 0.00 0.00 88 1016.0
20260901135712 19 14 0.0 1.6 0.00 0.00 0.00 88 1015.9
20260901134712 19 88 0.0 0.0 0.00 0.00 0.00 88 1016.0
20260901133713 19 88 0.0 0.0 0.00 0.00 0.00 88 1015.9
20260901132712 19 88 0.0 0.0 0.00 0.00 0.00 88 1016.0
20260901130712 19 88 0.0 0.0 0.00 0.00 0.00 88 1015.8
20260901125712 19 88 0.0 0.0 0.00 0.00 0.00 88 1015.8
20260901122712 19 88 0.0 0.0 0.00 0.00 0.00 88 1015.8
20260901121712 19 88 0.0 0.0 0.00 0.00 0.00 88 1015.7
20260901113713 18 88 0.0 0.0 0.00 0.00 0.00 88 1015.6
20260901111731 18 88 0.0 0.0 0.00 0.00 0.00 88 1015.4
20260901104712 18 88 0.0 0.0 0.00 0.00 0.00 88 1015.3
20260901101713 18 88 0.0 0.0 0.00 0.00 0.00 87 1015.1
20260901093712 18 88 0.0 0.0 0.00 0.00 0.00 87 1014.9
20260901092712 18 88 0.0 0.0 0.00 0.00 0.00 87 1015.1
20260901091713 18 88 0.0 0.0 0.00 0.00 0.00 87 1015.1
20260901085712 18 88 0.0 0.0 0.00 0.00 0.00 87 1015.1
20260901083712 18 88 0.0 0.0 0.00 0.00 0.00 87 1015.3
20260901082712 18 88 0.0 0.0 0.00 0.00 0.00 87 1015.4
20260901074713 18 88 0.0 0.0 0.00 0.00 0.00 88 1015.5
20260901073712 18 88 0.0 0.0 0.00 0.00 0.00 88 1015.6
20260901072714 18 88 0.0 0.0 0.00 0.00 0.00 88 1015.6
20260901070712 18 88 0.0 0.0 0.00 0.00 0.00 88 1015.6
20260901065712 18 88 0.0 0.0 0.00 0.00 0.00 88 1015.8
20260901064713 18 88 0.0 0.0 0.00 0.00 0.00 88 1015.9
20260901062712 18 88 0.0 0.0 0.00 0.00 0.00 88 1016.0